Wind_Speed
51 55 56 56 58 58 56 56 56 53 51 51 51 46 41 39 38 35 32 32 31 28 27 28 29 29 28 27 26 25 26 27 29 30 32 34 35 35 34 33 33 34 36 37
50 51 48 50 53 55 55 54 54 53 51 51 50 46 42 40 38 34 31 31 31 27 27 27 28 28 28 27 26 26 27 28 30 32 34 35 35 34 34 35 36 37 38 40
41 38 40 45 49 52 54 52 51 50 48 51 50 47 42 37 36 35 31 31 30 27 26 26 26 27 27 27 27 28 29 30 32 33 34 34 34 34 35 36 37 39 40 41
33 32 36 41 46 49 51 49 47 45 47 50 48 45 41 39 38 35 32 31 29 26 26 25 25 26 27 27 28 29 30 31 33 33 34 34 34 36 37 38 40 41 42 42
27 28 34 40 43 48 49 46 43 42 45 47 48 46 41 40 37 34 32 30 28 26 25 25 25 25 26 27 28 29 30 32 33 33 33 34 36 37 39 40 41 42 42 42
25 27 31 37 43 45 45 44 42 42 44 47 47 44 38 38 36 34 31 28 27 26 26 25 25 25 26 27 28 29 31 32 33 34 35 36 38 39 40 41 42 42 41 42
24 29 32 37 43 46 46 44 43 43 46 46 42 41 37 37 36 32 29 28 26 26 26 25 25 25 26 28 29 30 31 33 34 35 36 38 39 40 41 41 41 42 42 43
24 29 34 38 42 44 46 45 44 45 46 41 40 40 38 37 32 29 28 27 26 25 25 25 25 26 27 28 29 31 32 33 34 36 37 39 39 40 40 41 41 42 43 45
22 29 36 37 41 43 47 45 41 39 37 36 39 37 36 32 30 28 26 25 25 24 24 24 25 26 27 28 30 31 32 34 35 36 38 39 39 40 40 41 42 43 45 47
20 27 35 38 39 39 43 42 39 36 34 35 37 36 34 29 28 27 25 25 24 24 24 24 25 26 27 29 30 31 32 33 35 36 37 38 39 40 41 42 43 45 47 50
21 23 33 36 36 35 41 42 39 37 35 33 32 32 33 29 27 26 25 25 25 25 25 25 26 27 28 29 30 31 32 33 34 36 37 38 40 41 42 43 46 48 51 55
21 22 29 33 30 33 38 38 37 36 34 31 29 28 28 26 26 25 25 26 26 27 26 27 27 28 29 30 30 31 32 34 35 36 38 39 40 42 43 46 48 52 55 59
23 23 24 29 29 31 34 34 34 33 33 31 29 27 25 24 24 24 25 26 26 27 27 27 28 29 30 30 31 32 33 35 36 37 39 40 42 44 46 49 52 56 60 64
24 22 22 25 28 28 29 29 28 29 30 29 28 26 23 22 22 24 25 25 26 26 27 28 29 30 31 32 33 34 35 36 37 39 40 42 44 46 48 52 56 60 64 67
26 23 22 24 27 27 26 25 25 25 25 24 24 25 24 24 24 25 25 25 26 27 28 29 31 32 33 34 34 35 36 37 39 41 42 44 46 48 52 56 60 64 66 68
27 24 23 25 25 25 25 24 24 24 23 23 24 24 25 26 25 25 25 26 27 28 29 30 31 32 33 34 35 36 37 39 41 42 43 45 48 51 56 60 63 65 66 66
26 24 24 24 25 25 24 23 23 22 23 23 23 22 26 27 27 27 27 28 28 29 30 31 32 33 34 35 36 37 39 40 42 43 45 47 51 55 59 62 64 64 64 65
25 24 24 24 24 24 22 23 23 24 25 26 26 27 29 29 28 29 29 29 30 30 31 32 33 33 34 35 36 38 40 41 42 44 47 50 54 58 61 62 62 62 64 67
26 25 24 24 23 21 21 22 23 24 24 26 28 29 30 29 29 30 30 30 31 31 32 33 33 33 34 35 37 39 40 41 43 46 50 54 57 60 61 60 61 63 66 71
26 25 25 24 23 22 21 21 21 22 22 24 26 28 28 28 30 28 29 30 31 31 31 31 32 33 35 37 38 38 39 42 45 49 53 56 58 59 58 59 62 66 70 75
27 27 26 24 23 20 19 20 20 19 18 21 23 24 25 27 27 26 28 29 29 29 30 31 32 34 36 36 37 38 41 44 48 52 55 57 56 57 58 61 65 70 75 80
24 25 23 22 19 16 18 19 19 18 19 20 21 21 22 24 25 25 25 26 27 28 30 31 33 34 35 36 37 40 43 47 51 54 55 55 55 57 60 64 69 75 79 84
22 22 21 19 16 17 19 18 18 18 18 19 19 20 21 21 22 23 24 26 27 29 30 31 32 33 34 36 39 42 46 50 52 53 53 53 55 59 64 69 74 79 84 88
19 20 20 19 18 18 18 19 18 18 18 18 18 19 20 21 23 24 25 26 27 28 29 30 31 33 36 38 42 45 48 51 51 51 52 54 57 62 67 73 78 83 87 91
17 18 18 18 19 20 19 18 17 17 17 17 17 18 19 20 21 23 24 25 27 28 29 31 33 35 38 41 44 47 49 49 49 50 53 57 61 66 71 76 81 86 90 94
17 17 17 17 18 18 16 14 14 14 14 14 15 16 18 20 21 23 24 26 28 29 31 33 35 37 40 43 46 47 47 48 49 52 56 60 65 70 75 79 83 88 92 94
Wind_Direction
259 255 249 245 242 238 236 235 236 236 234 234 235 233 229 231 235 234 235 235 236 236 238 242 245 248 251 252 253 256 260 266 272 278 284 287 289 290 291 291 292 294 295 296
260 255 249 240 234 231 227 228 231 232 231 232 232 230 227 228 233 234 234 234 235 234 238 242 246 249 250 252 254 258 263 269 275 281 285 287 288 288 289 291 292 295 296 298
258 252 241 232 225 220 217 217 224 227 227 229 230 227 226 227 231 232 231 233 234 234 238 243 247 249 250 252 255 260 266 272 278 282 285 286 286 287 289 290 293 295 297 298
251 241 231 222 215 211 208 208 213 220 223 226 227 226 224 226 228 229 229 231 232 234 238 243 247 250 251 253 257 263 269 274 279 282 284 285 286 287 289 291 293 295 297 298
245 234 224 216 205 201 199 200 206 212 220 224 224 223 220 226 226 228 229 230 232 235 239 244 248 250 252 255 260 265 271 276 280 282 283 284 286 288 290 292 294 295 297 299
233 221 214 205 195 192 191 195 201 210 216 221 220 221 220 228 227 226 229 231 234 236 240 245 249 252 255 258 263 267 272 276 279 281 282 284 286 289 291 293 295 297 299 300
223 212 202 195 189 187 188 190 197 206 213 218 217 221 219 226 227 226 229 232 236 239 242 247 251 255 259 262 266 270 273 276 279 281 284 286 288 290 292 295 297 298 299 299
216 207 199 192 187 184 187 191 199 205 213 213 215 220 220 224 228 229 230 234 238 242 245 250 254 258 262 265 268 271 274 277 280 282 285 287 289 291 293 296 297 298 299 299
208 203 196 190 183 183 188 193 198 207 214 213 217 220 223 223 226 230 233 237 241 245 249 253 257 260 264 267 270 273 276 278 281 283 285 287 289 292 295 297 298 298 298 298
199 200 197 188 185 186 188 191 197 204 206 210 215 219 224 224 227 232 236 241 245 249 254 257 260 263 266 269 272 275 277 280 282 284 286 288 291 294 296 297 297 297 298 299
189 196 197 191 187 187 188 190 196 201 203 206 213 218 221 223 228 234 239 243 247 251 256 260 263 266 268 271 274 277 280 282 283 285 288 290 293 295 296 297 297 298 300 301
190 191 194 190 187 185 188 191 196 200 201 205 211 220 222 224 230 235 240 244 248 252 257 262 266 268 272 275 277 279 282 283 285 288 290 293 295 296 297 297 299 301 303 304
183 185 191 194 192 187 189 192 196 200 202 206 214 219 223 227 232 237 241 245 249 254 258 263 267 270 274 277 279 281 284 286 288 290 293 294 296 297 298 300 302 304 306 308
180 186 189 194 196 193 194 195 197 200 202 207 217 225 227 229 232 236 241 246 251 256 261 265 269 273 277 279 281 283 286 288 290 293 295 296 298 299 301 303 305 307 309 311
186 190 189 193 197 197 199 201 203 202 204 210 217 226 230 232 235 240 246 251 256 261 265 269 273 277 279 281 283 285 287 290 292 294 296 298 299 301 303 306 308 310 312 313
191 191 192 197 202 202 203 204 205 207 212 218 223 229 235 237 239 244 250 256 261 265 269 273 276 279 281 282 284 286 288 291 293 296 297 299 301 304 306 308 311 312 314 314
194 195 195 199 204 207 208 210 215 219 223 228 229 234 241 242 243 246 253 260 265 269 273 275 278 279 281 282 284 287 290 292 295 296 298 301 303 306 309 311 313 314 314 315
193 197 202 207 210 215 216 219 223 226 227 230 230 234 241 245 248 252 257 263 268 272 274 276 278 279 280 282 285 288 291 293 295 298 300 303 306 309 311 312 313 314 314 315
196 200 207 214 219 222 225 225 226 228 229 232 234 238 243 248 251 255 260 264 268 270 273 275 277 279 281 284 287 290 292 294 296 299 302 305 308 311 312 312 313 314 315 316
203 209 215 221 223 223 225 227 230 230 232 234 237 240 244 249 253 257 260 262 265 268 272 274 277 280 283 286 289 291 293 295 299 302 305 308 310 311 312 313 314 315 317 317
207 212 216 219 221 222 225 228 231 232 229 234 237 239 241 247 253 255 258 262 265 268 272 276 279 282 285 287 289 291 294 298 301 305 307 309 310 311 312 313 315 316 317 318
215 218 218 218 218 219 223 226 228 228 226 231 235 239 242 246 251 255 259 263 268 272 276 279 281 283 285 288 291 294 297 301 304 306 308 309 310 311 313 314 316 317 318 319
214 216 219 222 221 218 220 223 227 229 231 234 239 244 249 252 257 263 267 270 273 276 278 281 282 284 287 290 293 296 300 303 305 307 308 309 310 312 314 315 317 318 319 320
213 215 218 219 214 215 221 227 232 235 237 241 245 250 255 260 265 269 272 274 276 278 280 282 284 286 289 292 296 299 302 305 306 307 308 309 311 313 315 317 318 320 320 321
213 217 218 217 217 221 225 232 235 237 240 244 251 260 265 268 271 274 276 278 280 281 282 283 285 288 292 296 299 302 304 305 306 307 309 311 313 315 317 318 320 321 322 323
218 218 218 215 216 220 224 226 231 238 245 253 261 267 272 275 279 281 282 283 283 283 284 286 289 293 296 299 301 303 304 306 307 308 310 312 314 316 318 319 320 322 323 324
Height
5632 5634 5639 5647 5654 5665 5674 5683 5691 5701 5711 5717 5722 5731 5740 5743 5747 5753 5757 5760 5763 5766 5769 5770 5773 5775 5778 5780 5781 5782 5783 5783 5784 5783 5782 5781 5779 5778 5776 5773 5771 5769 5766 5763
5616 5619 5628 5632 5638 5648 5659 5671 5682 5693 5702 5709 5715 5724 5732 5737 5742 5747 5752 5755 5757 5761 5764 5766 5768 5771 5773 5775 5776 5777 5778 5778 5778 5777 5776 5775 5773 5771 5769 5767 5764 5762 5759 5756
5603 5611 5613 5616 5624 5635 5648 5663 5677 5687 5696 5701 5708 5717 5726 5732 5737 5741 5746 5749 5752 5756 5759 5761 5764 5766 5768 5770 5771 5772 5773 5772 5772 5771 5770 5768 5766 5765 5763 5760 5757 5755 5752 5748
5595 5600 5601 5606 5614 5626 5640 5658 5671 5681 5688 5694 5703 5711 5720 5725 5729 5735 5740 5743 5747 5751 5754 5756 5759 5761 5763 5765 5766 5766 5767 5766 5766 5764 5763 5761 5760 5758 5756 5753 5750 5747 5744 5740
5589 5593 5595 5600 5610 5622 5637 5654 5666 5675 5682 5689 5696 5704 5714 5717 5723 5729 5734 5738 5742 5746 5749 5751 5754 5756 5758 5759 5760 5760 5760 5760 5759 5758 5756 5754 5753 5750 5748 5745 5742 5739 5736 5732
5585 5587 5591 5598 5608 5619 5635 5649 5659 5666 5674 5681 5690 5700 5710 5712 5718 5724 5729 5733 5737 5741 5744 5746 5749 5751 5753 5754 5754 5754 5754 5753 5752 5751 5749 5747 5745 5743 5740 5737 5734 5731 5727 5723
5582 5584 5589 5595 5605 5616 5628 5641 5651 5658 5665 5675 5688 5695 5704 5705 5711 5719 5725 5728 5732 5736 5739 5741 5744 5746 5747 5748 5748 5748 5747 5746 5745 5744 5742 5740 5737 5735 5732 5729 5726 5722 5718 5714
5581 5585 5589 5595 5603 5614 5626 5637 5647 5655 5663 5676 5684 5689 5698 5702 5709 5715 5720 5724 5727 5731 5733 5736 5738 5740 5741 5741 5741 5741 5741 5740 5738 5737 5735 5732 5730 5727 5724 5721 5717 5713 5709 5704
5581 5586 5590 5596 5605 5615 5625 5634 5645 5655 5665 5675 5680 5687 5693 5700 5705 5710 5715 5719 5722 5726 5728 5731 5733 5734 5734 5735 5735 5735 5734 5733 5731 5730 5727 5725 5722 5719 5716 5712 5708 5704 5699 5694
5581 5587 5591 5596 5604 5614 5624 5634 5644 5654 5662 5669 5676 5683 5690 5697 5701 5706 5711 5714 5718 5721 5723 5725 5727 5728 5728 5728 5728 5728 5727 5726 5724 5722 5720 5717 5714 5711 5707 5703 5699 5694 5689 5684
5582 5588 5594 5598 5605 5613 5624 5633 5643 5651 5660 5668 5674 5681 5685 5693 5698 5702 5706 5710 5713 5716 5718 5719 5721 5721 5722 5722 5722 5721 5720 5719 5717 5715 5712 5709 5706 5702 5698 5694 5689 5684 5678 5672
5583 5589 5595 5601 5608 5615 5624 5633 5642 5651 5659 5666 5671 5679 5682 5689 5694 5698 5701 5705 5708 5710 5712 5714 5715 5715 5715 5715 5715 5714 5713 5711 5709 5707 5704 5701 5697 5693 5689 5684 5679 5673 5666 5659
5586 5592 5598 5603 5610 5617 5624 5632 5641 5649 5656 5663 5669 5677 5679 5685 5689 5693 5697 5700 5702 5705 5707 5708 5709 5709 5708 5708 5708 5707 5705 5703 5701 5699 5696 5692 5688 5684 5679 5674 5668 5661 5653 5645
5588 5594 5600 5606 5611 5618 5626 5633 5641 5648 5655 5662 5667 5672 5677 5681 5685 5689 5691 5694 5697 5699 5700 5702 5702 5702 5701 5701 5700 5699 5697 5695 5693 5690 5687 5683 5679 5674 5669 5663 5656 5648 5640 5631
5588 5595 5600 5606 5612 5619 5627 5633 5640 5647 5654 5660 5665 5669 5673 5677 5681 5684 5687 5689 5691 5693 5694 5695 5695 5695 5694 5693 5692 5691 5689 5687 5684 5681 5677 5673 5669 5663 5657 5651 5643 5635 5626 5617
5590 5596 5602 5607 5613 5619 5626 5632 5639 5646 5652 5657 5662 5666 5669 5672 5676 5679 5681 5683 5685 5687 5688 5688 5688 5688 5687 5686 5685 5683 5681 5678 5675 5672 5668 5663 5658 5652 5646 5638 5630 5621 5612 5603
5592 5598 5603 5609 5614 5620 5626 5633 5638 5644 5649 5654 5658 5664 5664 5667 5670 5673 5676 5677 5679 5680 5681 5681 5681 5680 5679 5678 5677 5675 5673 5670 5666 5662 5658 5653 5647 5641 5633 5625 5617 5608 5599 5590
5593 5598 5604 5609 5615 5620 5628 5631 5635 5640 5645 5649 5653 5656 5658 5661 5665 5667 5669 5671 5672 5673 5673 5673 5673 5673 5672 5670 5669 5667 5664 5661 5657 5653 5648 5642 5636 5628 5621 5612 5604 5595 5586 5576
5592 5597 5602 5607 5613 5618 5624 5628 5632 5636 5641 5644 5647 5650 5652 5656 5659 5661 5663 5665 5665 5666 5666 5666 5666 5665 5664 5663 5661 5658 5655 5651 5647 5642 5637 5631 5624 5616 5608 5600 5591 5582 5573 5562
5591 5596 5601 5606 5611 5616 5621 5624 5627 5633 5636 5639 5641 5644 5648 5650 5652 5656 5656 5657 5658 5658 5659 5659 5658 5658 5656 5655 5652 5649 5646 5642 5637 5632 5626 5619 5612 5604 5596 5587 5578 5569 5559 5548
5589 5594 5599 5604 5608 5613 5618 5621 5624 5630 5633 5633 5636 5639 5642 5644 5647 5649 5649 5650 5651 5652 5652 5652 5651 5650 5648 5646 5643 5640 5636 5632 5627 5621 5614 5607 5600 5592 5584 5575 5566 5555 5545 5533
5590 5594 5598 5602 5607 5614 5615 5617 5621 5624 5626 5628 5631 5634 5636 5639 5640 5642 5643 5644 5645 5645 5645 5644 5643 5641 5639 5637 5634 5631 5627 5622 5616 5610 5603 5596 5588 5580 5571 5562 5551 5540 5528 5515
5588 5594 5598 5603 5608 5609 5611 5614 5617 5619 5622 5625 5627 5630 5632 5634 5635 5637 5638 5638 5638 5638 5637 5636 5635 5633 5631 5628 5625 5621 5616 5611 5605 5598 5591 5584 5576 5568 5558 5548 5537 5524 5511 5497
5587 5590 5594 5598 5603 5605 5608 5610 5613 5616 5619 5621 5623 5626 5627 5629 5630 5631 5631 5631 5631 5630 5629 5628 5626 5624 5622 5619 5615 5611 5606 5600 5594 5587 5580 5573 5565 5556 5545 5534 5521 5508 5493 5479
5585 5588 5591 5595 5599 5602 5604 5607 5610 5612 5615 5617 5619 5621 5622 5623 5624 5624 5624 5624 5623 5622 5621 5620 5618 5616 5613 5609 5605 5600 5595 5589 5583 5576 5569 5561 5553 5543 5532 5520 5506 5491 5476 5457
5583 5586 5589 5593 5596 5599 5602 5604 5607 5609 5611 5613 5615 5616 5617 5617 5617 5617 5617 5616 5616 5615 5613 5611 5609 5606 5603 5599 5594 5589 5584 5578 5572 5565 5557 5549 5540 5529 5518 5506 5493 5476 5459 5443